Palo Verde, AZ

7:04 AM MST on August 27, 2016 (GMT -0700)
Buckeye Municipal

Weather History for KBXK - May, 2014

Change the Weather History Date:

Tuesday, May 6, 2014

  Actual Average (KGYR) Record (KGYR)
Temperature  
Mean Temperature 68 °F -  
Max Temperature 77 °F 90 °F 105 °F (2000)
Min Temperature 59 °F 61 °F 55 °F (2007)
Cooling Degree Days 3    
Growing Degree Days 18 (Base 50)    
Moisture  
Dew Point 30 °F    
Average Humidity 22    
Maximum Humidity 33    
Minimum Humidity 13    
Precipitation  
Precipitation 0.00 in - - ()
Sea Level Pressure  
Sea Level Pressure 29.72 in    
Wind  
Wind Speed 10 mph (SW)    
Max Wind Speed 20 mph    
Max Gust Speed 29 mph    
Visibility 9 miles    
Events      
Averages and records for this station are not official NWS values.
T = Trace of Precipitation, MM = Missing Value Source: NWS Daily Summary

Daily Weather History Graph

Daily Weather History Graph

Search for Another Location

Airport or City:

Trip Planner

Search our weather history database for the weather conditions in past years. The results will help you decide how hot, cold, wet, or windy it might be!

Date:

Astronomy

May. 06, 2014 Rise Set
Actual Time 5:37 AM MST 7:17 PM MST
Civil Twilight 5:10 AM MST 7:44 PM MST
Nautical Twilight 4:38 AM MST 8:16 PM MST
Astronomical Twilight 4:04 AM MST 8:50 PM MST
Moon 11:53 AM MST (5/6) 12:41 AM MST (5/6)
Length of Visible Light 14h 33m
Length of Day
13h 39m
Waxing Crescent, 47% of the Moon is Illuminated
May 6
Waxing Crescent
May 6
First Quarter
May 14
Full
May 21
Last Quarter
May 28
New

Hourly Weather History & Observations

Time (MST) Temp. Dew Point Humidity Pressure Visibility Wind Dir Wind Speed Gust Speed Precip Events Conditions
12:15 AM 73.4 °F 28.4 °F 19% 29.77 in 10.0 mi South 8.1 mph - N/A   Overcast
12:35 AM 71.6 °F 32.0 °F 23% 29.76 in 10.0 mi SSW 5.8 mph - N/A   Mostly Cloudy
4:55 AM 64.4 °F 32.0 °F 30% 29.75 in 10.0 mi West 5.8 mph - N/A   Mostly Cloudy
5:15 AM 64.4 °F 28.4 °F 26% 29.75 in 10.0 mi NNE 4.6 mph - N/A   Mostly Cloudy
5:35 AM 66.2 °F 30.2 °F 26% 29.75 in 10.0 mi Calm Calm - N/A   Partly Cloudy
5:55 AM 66.2 °F 32.0 °F 28% 29.75 in 10.0 mi South 5.8 mph - N/A   Clear
6:15 AM 66.2 °F 33.8 °F 30% 29.75 in 9.0 mi SSE 8.1 mph - N/A   Clear
7:15 AM 68.0 °F 37.4 °F 33% 29.76 in 6.0 mi ESE 3.5 mph - N/A   Clear
7:35 AM 69.8 °F 39.2 °F 33% 29.76 in 9.0 mi SSE 3.5 mph - N/A   Clear
7:55 AM 71.6 °F 39.2 °F 31% 29.76 in 9.0 mi South 8.1 mph - N/A   Clear
8:15 AM 71.6 °F 39.2 °F 31% 29.76 in 9.0 mi South 11.5 mph - N/A   Clear
8:35 AM 71.6 °F 37.4 °F 29% 29.77 in 10.0 mi SSW 12.7 mph - N/A   Clear
8:55 AM 73.4 °F 39.2 °F 29% 29.77 in 10.0 mi South 11.5 mph - N/A   Clear
9:15 AM 73.4 °F 39.2 °F 29% 29.76 in 9.0 mi South 12.7 mph - N/A   Clear
9:35 AM 73.4 °F 37.4 °F 27% 29.75 in 10.0 mi South 11.5 mph 16.1 mph N/A   Clear
9:55 AM 75.2 °F 35.6 °F 24% 29.75 in 10.0 mi SW 15.0 mph 20.7 mph N/A   Clear
10:15 AM 77.0 °F 35.6 °F 22% 29.75 in 10.0 mi WSW 13.8 mph 17.3 mph N/A   Clear
10:35 AM 77.0 °F 35.6 °F 22% 29.75 in 10.0 mi SSW 12.7 mph 17.3 mph N/A   Clear
10:55 AM 77.0 °F 32.0 °F 19% 29.75 in 10.0 mi South 10.4 mph 17.3 mph N/A   Clear
11:15 AM 77.0 °F 33.8 °F 21% 29.74 in 10.0 mi SSW 12.7 mph 20.7 mph N/A   Clear
11:35 AM 77.0 °F 33.8 °F 21% 29.74 in 10.0 mi SW 12.7 mph 21.9 mph N/A   Clear
11:55 AM 77.0 °F 32.0 °F 19% 29.73 in 10.0 mi SW 12.7 mph 16.1 mph N/A   Clear
12:15 PM 77.0 °F 33.8 °F 21% 29.72 in 9.0 mi WSW 15.0 mph 20.7 mph N/A   Clear
12:35 PM 77.0 °F 30.2 °F 18% 29.72 in 10.0 mi WSW 16.1 mph 21.9 mph N/A   Clear
12:55 PM 77.0 °F 30.2 °F 18% 29.72 in 10.0 mi WSW 19.6 mph 23.0 mph N/A   Clear
1:15 PM 77.0 °F 32.0 °F 19% 29.72 in 10.0 mi SW 15.0 mph 25.3 mph N/A   Clear
1:35 PM 77.0 °F 32.0 °F 19% 29.71 in 9.0 mi SW 17.3 mph 24.2 mph N/A   Clear
1:55 PM 75.2 °F 32.0 °F 21% 29.71 in 9.0 mi SW 17.3 mph 24.2 mph N/A   Clear
2:15 PM 75.2 °F 33.8 °F 22% 29.71 in 7.0 mi West 16.1 mph 25.3 mph N/A   Clear
2:35 PM 73.4 °F 33.8 °F 23% 29.70 in 9.0 mi West 15.0 mph 21.9 mph N/A   Clear
2:55 PM 73.4 °F 32.0 °F 22% 29.70 in 9.0 mi West 18.4 mph 23.0 mph N/A   Clear
3:15 PM 73.4 °F 32.0 °F 22% 29.69 in 7.0 mi WSW 17.3 mph 24.2 mph N/A   Clear
3:35 PM 75.2 °F 30.2 °F 19% 29.69 in 7.0 mi SW 15.0 mph 25.3 mph N/A   Clear
3:55 PM 73.4 °F 28.4 °F 19% 29.69 in 10.0 mi WSW 15.0 mph 26.5 mph N/A   Clear
4:15 PM 75.2 °F 24.8 °F 15% 29.68 in 10.0 mi WSW 18.4 mph 23.0 mph N/A   Clear
4:35 PM 75.2 °F 21.2 °F 13% 29.68 in 10.0 mi WSW 18.4 mph 25.3 mph N/A   Clear
4:55 PM 75.2 °F 23.0 °F 14% 29.68 in 10.0 mi WSW 16.1 mph 28.8 mph N/A   Clear
5:15 PM 75.2 °F 21.2 °F 13% 29.68 in 10.0 mi WSW 16.1 mph 24.2 mph N/A   Clear
5:35 PM 73.4 °F 23.0 °F 15% 29.68 in 10.0 mi WSW 17.3 mph - N/A   Clear
5:55 PM 73.4 °F 24.8 °F 16% 29.68 in 10.0 mi West 17.3 mph 21.9 mph N/A   Clear
6:15 PM 73.4 °F 26.6 °F 18% 29.68 in 9.0 mi WSW 15.0 mph 18.4 mph N/A   Clear
6:35 PM 71.6 °F 26.6 °F 19% 29.68 in 8.0 mi WSW 11.5 mph 16.1 mph N/A   Clear
6:55 PM 71.6 °F 23.0 °F 16% 29.68 in 9.0 mi WSW 12.7 mph - N/A   Clear
7:15 PM 69.8 °F 23.0 °F 17% 29.69 in 9.0 mi WSW 9.2 mph - N/A   Clear
7:35 PM 68.0 °F 23.0 °F 18% 29.69 in 7.0 mi WSW 10.4 mph 17.3 mph N/A   Clear
7:55 PM 68.0 °F 23.0 °F 18% 29.70 in 7.0 mi WSW 10.4 mph - N/A   Partly Cloudy
8:15 PM 68.0 °F 23.0 °F 18% 29.70 in 7.0 mi SW 9.2 mph - N/A   Scattered Clouds
8:35 PM 66.2 °F 24.8 °F 21% 29.71 in 7.0 mi SW 5.8 mph - N/A   Scattered Clouds
8:55 PM 66.2 °F 24.8 °F 21% 29.71 in 8.0 mi SW 8.1 mph - N/A   Scattered Clouds
9:15 PM 66.2 °F 26.6 °F 23% 29.72 in 8.0 mi SW 10.4 mph - N/A   Scattered Clouds
9:35 PM 66.2 °F 28.4 °F 24% 29.72 in 9.0 mi SSW 11.5 mph - N/A   Mostly Cloudy
9:55 PM 64.4 °F 26.6 °F 24% 29.73 in 9.0 mi SW 6.9 mph - N/A   Mostly Cloudy
10:15 PM 62.6 °F 26.6 °F 26% 29.73 in 10.0 mi WSW 5.8 mph - N/A   Partly Cloudy
10:35 PM 64.4 °F 26.6 °F 24% 29.73 in 10.0 mi WSW 5.8 mph - N/A   Clear
11:15 PM 59.0 °F 26.6 °F 29% 29.73 in 9.0 mi WSW 6.9 mph - N/A   Partly Cloudy
11:35 PM 60.8 °F 28.4 °F 29% 29.73 in 9.0 mi WSW 3.5 mph - N/A   Partly Cloudy
11:55 PM 60.8 °F 28.4 °F 29% 29.73 in 9.0 mi SW 6.9 mph - N/A   Partly Cloudy